Westerly, RI

2:28 PM EDT on August 23, 2017 (GMT -0400)
Westerly State

Weather History for KWST - May, 2013

Change the Weather History Date:

Wednesday, May 29, 2013

  Actual Average (KGON) Record (KGON)
Temperature  
Mean Temperature 62 °F -  
Max Temperature 70 °F 70 °F 87 °F (1969)
Min Temperature 55 °F 50 °F 38 °F (1962)
Degree Days  
Heating Degree Days 3    
Growing Degree Days 12 (Base 50)    
Moisture  
Dew Point 57 °F    
Average Humidity 90    
Maximum Humidity 100    
Minimum Humidity 75    
Precipitation  
Precipitation 0.06 in - - ()
Sea Level Pressure  
Sea Level Pressure 30.10 in    
Wind  
Wind Speed 6 mph (South)    
Max Wind Speed 10 mph    
Max Gust Speed -    
Visibility 7 miles    
Events Rain , Thunderstorm    
Averages and records for this station are not official NWS values.
T = Trace of Precipitation, MM = Missing Value Source: NWS Daily Summary

Daily Weather History Graph

Daily Weather History Graph

Search for Another Location

Airport or City:

Trip Planner

Search our weather history database for the weather conditions in past years. The results will help you decide how hot, cold, wet, or windy it might be!

Date:

Astronomy

May. 29, 2013 Rise Set
Actual Time 5:17 AM EDT 8:12 PM EDT
Civil Twilight 4:44 AM EDT 8:45 PM EDT
Nautical Twilight 4:03 AM EDT 9:26 PM EDT
Astronomical Twilight 3:14 AM EDT 10:15 PM EDT
Moon No Moon Rise 10:15 AM EDT (5/29)
Length of Visible Light 16h 00m
Length of Day
14h 54m
Waning Gibbous, 73% of the Moon is Illuminated
May 29
Waning Gibbous
May 31
Last Quarter
Jun 8
New
Jun 16
First Quarter
Jun 23
Full

Hourly Weather History & Observations

Time (EDT) Temp. Dew Point Humidity Pressure Visibility Wind Dir Wind Speed Gust Speed Precip Events Conditions
12:53 AM 55.9 °F 55.0 °F 97% 30.19 in 8.0 mi Variable 4.6 mph - 0.00 in Rain Light Rain
1:53 AM 55.9 °F 55.0 °F 97% 30.17 in 7.0 mi South 9.2 mph - 0.00 in Rain Light Rain
2:13 AM 55.4 °F 55.4 °F 100% 30.16 in 6.0 mi South 9.2 mph - 0.00 in Rain Light Rain
2:53 AM 55.9 °F 55.0 °F 97% 30.15 in 4.0 mi South 9.2 mph - 0.02 in Rain Rain
3:53 AM 55.9 °F 55.0 °F 97% 30.14 in 5.0 mi SSE 6.9 mph - 0.04 in Rain Light Rain
4:53 AM 55.9 °F 55.0 °F 97% 30.12 in 6.0 mi SSE 6.9 mph - 0.00 in   Overcast
5:24 AM 55.4 °F 55.4 °F 100% 30.12 in 6.0 mi South 9.2 mph - N/A   Overcast
5:53 AM 55.9 °F 55.0 °F 97% 30.12 in 5.0 mi South 9.2 mph - N/A   Overcast
6:01 AM 55.4 °F 55.4 °F 100% 30.12 in 5.0 mi South 9.2 mph - N/A   Overcast
6:53 AM 57.0 °F 55.0 °F 93% 30.12 in 6.0 mi South 8.1 mph - N/A   Mostly Cloudy
7:53 AM 57.0 °F 55.0 °F 93% 30.12 in 5.0 mi South 8.1 mph - 0.00 in Rain Light Rain
8:49 AM 57.2 °F 55.4 °F 94% 30.12 in 6.0 mi Calm Calm - 0.00 in   Overcast
8:53 AM 57.0 °F 55.9 °F 96% 30.12 in 6.0 mi South 4.6 mph - 0.00 in   Overcast
9:00 AM 57.2 °F 55.4 °F 94% 30.12 in 6.0 mi South 3.5 mph - N/A   Overcast
9:53 AM 57.0 °F 55.9 °F 96% 30.12 in 6.0 mi SSW 5.8 mph - N/A   Overcast
10:53 AM 59.0 °F 57.0 °F 93% 30.11 in 6.0 mi Calm Calm - N/A   Overcast
11:20 AM 62.6 °F 57.2 °F 82% 30.11 in 8.0 mi Calm Calm - N/A   Mostly Cloudy
11:53 AM 62.1 °F 57.9 °F 86% 30.10 in 8.0 mi South 4.6 mph - N/A   Scattered Clouds
12:53 PM 62.1 °F 57.0 °F 84% 30.09 in 8.0 mi South 8.1 mph - N/A   Scattered Clouds
1:10 PM 62.6 °F 57.2 °F 82% 30.10 in 8.0 mi South 8.1 mph - N/A   Mostly Cloudy
1:53 PM 64.0 °F 57.9 °F 80% 30.07 in 10.0 mi SSW 10.4 mph - N/A   Clear
2:53 PM 68.0 °F 60.1 °F 76% 30.07 in 9.0 mi West 6.9 mph - N/A   Partly Cloudy
3:53 PM 69.1 °F 61.0 °F 75% 30.06 in 9.0 mi WSW 5.8 mph - N/A   Clear
4:53 PM 69.1 °F 62.1 °F 78% 30.06 in 8.0 mi SW 5.8 mph - N/A   Clear
5:53 PM 68.0 °F 61.0 °F 78% 30.04 in 8.0 mi South 9.2 mph - N/A   Clear
6:53 PM 64.9 °F 60.1 °F 84% 30.05 in 7.0 mi SW 4.6 mph - N/A   Clear
7:53 PM 60.1 °F 57.0 °F 90% 30.04 in 6.0 mi SSE 3.5 mph - N/A   Clear
8:53 PM 60.1 °F 55.9 °F 86% 30.04 in 7.0 mi SW 3.5 mph - N/A   Clear
9:53 PM 59.0 °F 57.0 °F 93% 30.06 in 7.0 mi Calm Calm - N/A   Clear
10:53 PM 63.0 °F 59.0 °F 87% 30.10 in 7.0 mi Calm Calm - N/A   Mostly Cloudy
11:15 PM 62.6 °F 60.8 °F 94% 30.11 in 8.0 mi Calm Calm - N/A Thunderstorm Overcast
11:42 PM 62.6 °F 60.8 °F 94% 30.09 in 6.0 mi Calm Calm - 0.00 in Rain Light Rain
11:53 PM 63.0 °F 60.1 °F 90% 30.09 in 7.0 mi SSE 3.5 mph - 0.00 in   Overcast